This is the latest recevied weather packets stored in our database for station/object N3TTT-13. If no packets are shown the sender has not sent any weather packets the latest 10 day(s).
| Time | Temp. | Humidity | Pressure | Rain* | Wind** | Luminosity | Snow |
|---|---|---|---|---|---|---|---|
| 1777833988 | 14.44° C | 40% | 1014.9 hPa | 0 mm | - | 533 W/m² | - |
| 1777833685 | 13.89° C | 39% | 1015.2 hPa | 0 mm | - | 523 W/m² | - |
| 1777833381 | 14.44° C | 42% | 1015.2 hPa | 0 mm | - | 507 W/m² | - |
| 1777833078 | 13.89° C | 39% | 1014.8 hPa | 0 mm | - | 472 W/m² | - |
| 1777832777 | 13.89° C | 39% | 1015.2 hPa | 0 mm | - | 503 W/m² | - |
| 1777832475 | 13.33° C | 40% | 1015 hPa | 0 mm | - | 596 W/m² | - |
| 1777832171 | 13.89° C | 42% | 1015.2 hPa | 0 mm | - | 609 W/m² | - |
| 1777831868 | 13.89° C | 43% | 1015.5 hPa | 0 mm | - | 538 W/m² | - |
| 1777831565 | 13.89° C | 41% | 1015.4 hPa | 0 mm | - | 540 W/m² | - |
| 1777831263 | 13.89° C | 42% | 1015.3 hPa | 0 mm | - | 590 W/m² | - |
| 1777830959 | 13.33° C | 41% | 1015.4 hPa | 0 mm | - | 632 W/m² | - |
| 1777830657 | 14.44° C | 44% | 1015.3 hPa | 0 mm | - | 632 W/m² | - |
| 1777830354 | 14.44° C | 43% | 1015.2 hPa | 0 mm | - | 546 W/m² | - |
| 1777830050 | 13.33° C | 43% | 1015.3 hPa | 0 mm | - | 672 W/m² | - |
| 1777829745 | 13.89° C | 42% | 1015.3 hPa | 0 mm | - | 675 W/m² | - |
| 1777829442 | 13.33° C | 44% | 1015.2 hPa | 0 mm | - | 687 W/m² | - |
| 1777829139 | 13.33° C | 41% | 1015.8 hPa | 0 mm | - | 696 W/m² | - |
| 1777828836 | 13.33° C | 43% | 1015.3 hPa | 0 mm | - | 681 W/m² | - |
| 1777828533 | 13.33° C | 46% | 1015.5 hPa | 0 mm | - | 679 W/m² | - |
| 1777828230 | 12.78° C | 44% | 1015.5 hPa | 0 mm | - | 677 W/m² | - |
| 1777827926 | 12.78° C | 44% | 1015.4 hPa | 0 mm | - | 668 W/m² | - |
| 1777827624 | 12.22° C | 44% | 1015.5 hPa | 0 mm | - | 676 W/m² | - |
| 1777827321 | 12.78° C | 44% | 1015.4 hPa | 0 mm | - | 667 W/m² | - |
| 1777827017 | 12.78° C | 45% | 1015.4 hPa | 0 mm | - | 702 W/m² | - |
| 1777826715 | 13.33° C | 45% | 1015.5 hPa | 0 mm | - | 720 W/m² | - |
* Rain latest hour (hover to see other rain measurements)
** Current wind speed in m/s (hover to see current wind gust speed)